EW9544 Weather Reports


Display with metric or nautical units.
time (UTC)temp
F
wind
direction
speed
MPH
gust
MPH
rain 1hr
in
rain 24hr
in
rain mn
in
humidity
%
barometer
mb
20260504023556 52 21 0.0 1.0 0.00 0.00 0.00 55 1010.4
20260504022055 51 21 0.0 1.0 0.00 0.00 0.00 48 1010.4
20260504021055 51 23 0.0 0.0 0.00 0.00 0.00 49 1010.3
20260504020055 51 23 0.0 0.0 0.00 0.00 0.00 50 1010.3
20260504015555 51 23 0.0 0.0 0.00 0.00 0.00 50 1010.2
20260504015053 51 23 0.0 0.0 0.00 0.00 0.00 51 1010.2
20260504014553 52 23 0.0 0.0 0.00 0.00 0.00 50 1010.2
20260504014053 52 23 0.0 0.0 0.00 0.00 0.00 50 1010.2
20260504013553 52 23 0.0 0.0 0.00 0.00 0.00 50 1010.2
20260504012553 53 23 0.0 0.0 0.00 0.00 0.00 50 1010.1
20260504012054 53 23 0.0 0.0 0.00 0.00 0.00 49 1010.0
20260504011553 53 23 0.0 0.0 0.00 0.00 0.00 47 1010.0
20260504011054 54 23 0.0 0.0 0.00 0.00 0.00 45 1010.0
20260504010554 54 23 0.0 0.0 0.00 0.00 0.00 46 1009.8
20260504010051 54 23 0.0 0.0 0.00 0.00 0.00 45 1009.8
20260504005552 55 23 0.0 0.0 0.00 0.00 0.00 45 1009.7
20260504004553 55 23 0.0 0.0 0.00 0.00 0.00 42 1009.6
20260504004051 56 23 0.0 0.0 0.00 0.00 0.00 44 1009.6
20260504003552 56 23 0.0 0.0 0.00 0.00 0.00 40 1009.5
20260504003051 56 23 0.0 1.0 0.00 0.00 0.00 38 1009.4
20260504002551 56 23 0.0 1.0 0.00 0.00 0.00 38 1009.3
20260504002051 57 23 0.0 1.0 0.00 0.00 0.00 37 1009.2
20260504001551 57 23 0.0 1.0 0.00 0.00 0.00 37 1009.2
20260504000550 57 30 0.0 1.0 0.00 0.00 0.00 36 1009.0
20260503235049 58 19 0.0 2.0 0.00 0.00 0.00 35 1008.8
20260503234549 58 32 0.0 2.0 0.00 0.00 0.00 34 1008.8
20260503234049 58 4 0.0 2.0 0.00 0.00 0.00 34 1008.7
20260503233550 58 8 0.0 2.0 0.00 0.00 0.00 34 1008.6
20260503233048 59 4 0.0 3.0 0.00 0.00 0.00 32 1008.6
20260503231547 59 23 0.0 2.0 0.00 0.00 0.00 32 1008.5
20260503231048 59 10 0.0 2.0 0.00 0.00 0.00 31 1008.4
20260503230047 59 40 0.0 5.0 0.00 0.00 0.00 31 1008.2
20260503224547 59 20 0.0 3.0 0.00 0.00 0.00 31 1008.2
20260503223547 59 11 1.0 6.0 0.00 0.00 0.00 31 1008.2
20260503222546 59 23 1.0 7.0 0.00 0.00 0.00 30 1008.2
20260503222045 60 4 0.0 3.0 0.00 0.00 0.00 31 1008.1
20260503221544 59 4 1.0 8.0 0.00 0.00 0.00 31 1008.1
20260503221046 59 25 1.0 8.0 0.00 0.00 0.00 31 1008.1
20260503220546 59 38 1.0 7.0 0.00 0.00 0.00 29 1008.1
20260503220046 59 324 1.0 15.0 0.00 0.00 0.00 30 1008.2
20260503215545 59 354 2.0 15.0 0.00 0.00 0.00 30 1008.1
20260503215044 59 10 1.0 9.0 0.00 0.00 0.00 30 1008.1
20260503214546 59 354 1.0 8.0 0.00 0.00 0.00 32 1008.1
20260503214043 59 24 1.0 11.0 0.00 0.00 0.00 32 1008.1
20260503213544 59 359 2.0 11.0 0.00 0.00 0.00 31 1008.0
20260503213042 59 10 2.0 13.0 0.00 0.00 0.00 32 1008.0
20260503212543 59 8 3.0 17.0 0.00 0.00 0.00 31 1008.0
20260503212042 59 287 3.0 17.0 0.00 0.00 0.00 31 1007.9
20260503211044 59 8 2.0 9.0 0.00 0.00 0.00 31 1007.8
20260503210544 59 25 2.0 16.0 0.00 0.00 0.00 32 1007.9
20260503210042 59 13 2.0 16.0 0.00 0.00 0.00 32 1008.0
20260503205543 59 14 2.0 11.0 0.00 0.00 0.00 31 1007.9
20260503205043 59 33 2.0 11.0 0.00 0.00 0.00 32 1007.9
20260503204543 59 4 1.0 11.0 0.00 0.00 0.00 33 1007.8
20260503204043 59 55 0.0 5.0 0.00 0.00 0.00 33 1007.9
20260503203044 59 61 1.0 8.0 0.00 0.00 0.00 33 1008.0
20260503202543 59 27 2.0 12.0 0.00 0.00 0.00 34 1008.0
20260503202044 59 20 3.0 13.0 0.00 0.00 0.00 33 1007.9
20260503201544 59 12 2.0 13.0 0.00 0.00 0.00 34 1007.8
20260503201042 59 37 2.0 12.0 0.00 0.00 0.00 34 1008.0
20260503200542 59 12 1.0 12.0 0.00 0.00 0.00 34 1008.1
20260503200042 59 8 1.0 5.0 0.00 0.00 0.00 35 1008.0
20260503195543 58 10 2.0 11.0 0.00 0.00 0.00 35 1008.1
20260503194543 58 60 5.0 23.0 0.00 0.00 0.00 37 1008.2
20260503193542 57 50 2.0 14.0 0.00 0.00 0.00 36 1008.2
20260503193041 57 49 3.0 14.0 0.00 0.00 0.00 37 1008.3
20260503192040 57 72 2.0 15.0 0.00 0.00 0.00 38 1008.4
20260503191541 57 59 1.0 11.0 0.00 0.00 0.00 38 1008.5
20260503190540 55 65 3.0 13.0 0.00 0.00 0.00 39 1008.7
20260503190041 56 25 2.0 13.0 0.00 0.00 0.00 39 1008.8
20260503185540 55 26 1.0 10.0 0.00 0.00 0.00 40 1008.7
20260503185041 56 16 2.0 16.0 0.00 0.00 0.00 39 1008.8
20260503184540 55 43 3.0 16.0 0.00 0.00 0.00 40 1008.8
20260503184040 56 350 1.0 9.0 0.00 0.00 0.00 40 1008.8
20260503183542 55 43 2.0 10.0 0.00 0.00 0.00 42 1008.9
20260503183040 55 19 3.0 13.0 0.00 0.00 0.00 40 1009.0
20260503182040 54 18 2.0 12.0 0.00 0.00 0.00 41 1008.9
20260503181542 54 44 2.0 16.0 0.00 0.00 0.00 41 1008.9
20260503181041 55 359 2.0 16.0 0.00 0.00 0.00 41 1009.0
20260503180540 55 54 2.0 12.0 0.00 0.00 0.00 40 1008.8
20260503180041 55 8 2.0 11.0 0.00 0.00 0.00 40 1008.9
20260503175538 55 58 3.0 14.0 0.00 0.00 0.00 41 1008.9
20260503174538 55 8 2.0 12.0 0.00 0.00 0.00 41 1008.8
20260503174038 55 28 2.0 12.0 0.00 0.00 0.00 39 1008.8
20260503173539 56 359 2.0 12.0 0.00 0.00 0.00 38 1008.8
20260503173039 55 16 2.0 12.0 0.00 0.00 0.00 40 1008.7
20260503172039 55 21 2.0 11.0 0.00 0.00 0.00 38 1008.7
20260503171038 55 62 2.0 13.0 0.00 0.00 0.00 38 1008.8
20260503170536 55 17 2.0 9.0 0.00 0.00 0.00 40 1008.9
20260503150531 51 16 1.0 4.0 0.00 0.00 0.00 51 1009.6
20260503131029 49 13 1.0 14.0 0.00 0.00 0.00 56 1009.4
20260503130528 49 52 1.0 4.0 0.00 0.00 0.00 57 1009.4
20260503110523 44 23 0.0 2.0 0.00 0.00 0.00 66 1009.3
20260503081517 45 73 2.0 9.0 0.00 0.00 0.00 61 1008.6
20260503081017 45 25 1.0 6.0 0.00 0.00 0.00 62 1008.6
20260503072515 46 34 1.0 4.0 0.00 0.00 0.00 60 1008.5
20260503072014 47 58 1.0 6.0 0.00 0.00 0.00 60 1008.5
20260503071516 47 75 1.0 6.0 0.00 0.00 0.00 59 1008.4
20260503071015 47 54 2.0 11.0 0.00 0.00 0.00 59 1008.5
20260503070516 47 52 3.0 17.0 0.00 0.00 0.00 59 1008.4
20260503055012 49 65 3.0 14.0 0.00 0.00 0.00 55 1008.8
20260503054511 49 84 2.0 12.0 0.00 0.00 0.00 54 1008.8
20260503054012 49 70 1.0 6.0 0.00 0.00 0.00 55 1009.0
20260503053512 49 58 1.0 6.0 0.00 0.00 0.00 54 1009.0
20260503053011 49 50 1.0 3.0 0.00 0.00 0.00 54 1009.1
20260503052512 49 72 1.0 2.0 0.00 0.00 0.00 55 1009.1
20260503052009 49 49 1.0 6.0 0.00 0.00 0.00 54 1009.2
20260503051510 49 50 1.0 6.0 0.00 0.00 0.00 53 1009.3
20260503051009 49 62 1.0 2.0 0.00 0.00 0.00 54 1009.4
20260503050510 50 50 1.0 2.0 0.00 0.00 0.00 54 1009.3
20260503050009 50 60 1.0 2.0 0.00 0.00 0.00 54 1009.3
20260503045508 50 96 1.0 2.0 0.00 0.00 0.00 54 1009.3
20260503045008 50 68 1.0 6.0 0.00 0.00 0.00 54 1009.3
20260503044507 50 62 1.0 6.0 0.00 0.00 0.00 53 1009.4
20260503044008 50 58 1.0 9.0 0.00 0.00 0.00 54 1009.5
20260503043507 50 78 2.0 9.0 0.00 0.00 0.00 52 1009.5
20260503043008 51 70 1.0 8.0 0.00 0.00 0.00 52 1009.5
20260503042508 51 55 1.0 4.0 0.00 0.00 0.00 54 1009.5
20260503042008 51 77 0.0 4.0 0.00 0.00 0.00 54 1009.6
20260503041508 51 40 0.0 4.0 0.00 0.00 0.00 54 1009.7
20260503041007 51 89 0.0 4.0 0.00 0.00 0.00 54 1009.6
20260503040508 51 60 0.0 2.0 0.00 0.00 0.00 54 1009.5
20260503040008 51 97 1.0 2.0 0.00 0.00 0.00 54 1009.4
20260503035008 51 60 1.0 8.0 0.00 0.00 0.00 53 1009.3
20260503034508 51 103 0.0 2.0 0.00 0.00 0.00 55 1009.3
20260503034008 52 75 0.0 2.0 0.00 0.00 0.00 54 1009.2
20260503033507 52 60 0.0 2.0 0.00 0.00 0.00 53 1009.3
20260503033008 52 60 0.0 2.0 0.00 0.00 0.00 53 1009.2
20260503032508 52 63 1.0 2.0 0.00 0.00 0.00 53 1009.2
20260503032009 52 66 1.0 4.0 0.00 0.00 0.00 53 1009.3
20260503031507 52 85 1.0 4.0 0.00 0.00 0.00 53 1009.2
20260503031007 52 48 1.0 2.0 0.00 0.00 0.00 53 1009.3
20260503030507 52 44 1.0 2.0 0.00 0.00 0.00 53 1009.2
20260503030007 53 63 1.0 2.0 0.00 0.00 0.00 53 1009.2
20260503025508 53 81 1.0 2.0 0.00 0.00 0.00 52 1009.2
20260503025008 53 56 1.0 2.0 0.00 0.00 0.00 53 1009.2
20260503024007 53 89 0.0 2.0 0.00 0.00 0.00 53 1009.1